www.pogodaiklimat.ru

Погода и климат >> Архив погоды >> Канада >> Hat Island


ПОГОДА в Hat Island

  • Прогноз погоды в Hat Island
  • Монитор погоды в Hat Island
  • Климат города

АРХИВ ПОГОДЫ в Hat Island

Время (UTC), дата Ветер
(напр.,м/с)
 
Видим.   Явления Облачность Т
(С)
Тd
(С)
f
(%)
Тe
(С)
Тes
(С)
Комфортность P
(гПа)
Po
(гПа)
Тmin
(С)
Tmax
(С)
R
(мм)
R24
(мм)
S
(см)
06 19.05 Ю 3 н/о н/о -3.9 -8 -8 1008.9 1004.2 -10.4 -3.3
09 19.05 ЮЗ 9 н/о н/о -3.1 -10 -10 1007.3 1002.6
12 19.05 СЗ 8 н/о н/о -6.3 -14 -14 1007.1 1002.4 -6.3 -3.3
15 19.05 СЗ 8 н/о н/о -5.4 -13 -13 1008.2 1003.5
18 19.05 С 9 н/о н/о -3.5 -11 -11 1010.1 1005.4 -6.3 -2.8
21 19.05 С 7 н/о н/о -1.1 -7 -7 1012.1 1007.4
00 20.05 С 6 н/о н/о -1.2 -7 -7 1014.1 1009.4 -6.3 -1.1
03 20.05 С 5 н/о н/о -1.4 -6 -6 1015.6 1010.9
06 20.05 СВ 5 н/о н/о -2.8 -8 -8 1017.0 1012.3 -6.3 -1.0 171
09 20.05 СВ 3 н/о н/о -2.9 -6 -6 1018.7 1014.0
12 20.05 СВ 4 н/о н/о -3.4 -8 -8 1020.1 1015.4 -3.4 -1.0
15 20.05 В 4 н/о н/о -2.3 -7 -7 1021.7 1017.0
18 20.05 ЮВ 4 н/о н/о -2.8 -7 -7 1023.6 1018.8 -3.5 -2.1
21 20.05 ЮВ 4 н/о н/о -2.2 -7 -7 1025.1 1020.3
00 21.05 ЮВ 6 н/о н/о -1.7 -7 -7 1026.1 1021.3 -3.5 -1.5
03 21.05 ЮВ 6 н/о н/о -2.2 -8 -8 1027.3 1022.5
06 21.05 ЮВ 7 н/о н/о -2.7 -9 -9 1027.9 1023.1 -3.5 -1.2 60
09 21.05 ЮВ 4 н/о н/о -2.9 -7 -7 1028.8 1024.0
12 21.05 ЮВ 5 н/о н/о -2.2 -7 -7 1029.3 1024.5 -3.1 -1.2
15 21.05 ЮВ 8 н/о н/о -0.5 -7 -7 1028.6 1023.8
18 21.05 ЮВ 9 н/о н/о +0.8 -5 -5 1028.1 1023.3 -3.1 +0.8
21 21.05 Ю 6 н/о н/о +1.7 -3 -3 1027.3 1022.5
00 22.05 Ю 6 н/о н/о +1.4 -3 -3 1026.0 1021.3 -3.0 +1.9
03 22.05 Ю 6 н/о н/о +0.5 -4 -4 1024.6 1019.9
06 22.05 Ю 9 н/о н/о -0.5 -7 -7 1023.9 1019.2 -3.0 +1.9 171
09 22.05 Ю 7 н/о н/о -1.4 -7 -7 1023.6 1018.9
12 22.05 Ю 6 н/о н/о -1.3 -7 -7 1023.0 1018.3 -1.8 +1.9
15 22.05 Ю 11 н/о н/о +0.4 -6 -6 1021.5 1016.8
18 22.05 Ю 11 н/о н/о +1.5 -5 -5 1019.5 1014.8 -1.8 +1.5
21 22.05 Ю 8 н/о н/о +1.4 -4 -4 1017.6 1012.9
00 23.05 Ю 11 н/о н/о +1.0 -5 -5 1015.2 1010.5 -1.8 +1.7
03 23.05 Ю 9 н/о н/о +0.5 -6 -6 1012.8 1008.1
06 23.05 Ю 10 н/о н/о +0.2 -6 -6 1010.1 1005.4 -1.8 +1.7 181
09 23.05 Ю 9 н/о н/о +0.2 -6 -6 1007.8 1003.1
12 23.05 ЮВ 11 н/о н/о +0.6 -6 -6 1005.2 1000.6 +0.1 +1.7
15 23.05 ЮВ 10 н/о н/о +0.6 -6 -6 1003.2 998.6
18 23.05 ЮВ 11 н/о н/о +0.5 -6 -6 1001.5 996.9 +0.1 +0.8
21 23.05 ЮВ 10 н/о н/о +0.6 -6 -6 999.9 995.3
00 24.05 В 9 н/о н/о +0.4 -6 -6 998.7 994.1 +0.1 +1.0
03 24.05 ЮВ 7 н/о н/о +0.5 -5 -5 997.9 993.3
06 24.05 ЮВ 7 н/о н/о +0.1 -5 -5 998.0 993.4 +0.1 +1.0 201
09 24.05 ЮВ 6 н/о н/о 0.0 -5 -5 998.4 993.8
12 24.05 ЮВ 6 н/о н/о +0.2 -5 -5 999.1 994.5 -0.1 +1.0
15 24.05 В 8 н/о н/о +0.3 -5 -5 999.9 995.3
18 24.05 В 8 н/о н/о +0.5 -5 -5 1000.9 996.3 -0.1 +0.5
21 24.05 В 6 н/о н/о +0.7 -4 -4 1002.1 997.5
00 25.05 В 5 н/о н/о +0.6 -3 -3 1003.4 998.8 -0.1 +0.8
03 25.05 В 5 н/о н/о +0.4 -4 -4 1004.6 1000.0
06 25.05 ЮВ 4 н/о н/о +0.4 -3 -3 1005.9 1001.3 -0.1 +0.8 71
09 25.05 ЮВ 4 н/о н/о +0.3 -3 -3 1007.3 1002.6
12 25.05 В 4 н/о н/о +0.7 -3 -3 1008.9 1004.2 +0.3 +0.8
15 25.05 В 6 н/о н/о +0.7 -4 -4 1010.3 1005.6
18 25.05 В 6 н/о н/о +1.8 -2 -2 1011.1 1006.4 +0.3 +1.9
21 25.05 ЮВ 6 н/о н/о +2.2 -2 -2 1012.2 1007.5
00 26.05 ЮВ 7 н/о н/о +1.9 -3 -3 1013.2 1008.5 +0.3 +2.3
03 26.05 ЮВ 5 н/о н/о +1.0 -3 -3 1014.5 1009.8

 

Местоположение метеостанции Hat Island (Канада): широта 68.32 долгота -100.00 высота над уровнем моря 36 м.

В архиве по умолчанию представлена погода в Hat Island за последнюю неделю. Архивные данные за месяц целиком и за предыдущие месяцы, начиная с января 2011 года, Вы можете получить, выбрав интересующий диапазон дат из раскрывающегося списка и нажав кнопку "Ввод!".

Внимание! Время в таблицах - всемирное. Для получения местного времени необходимо прибавить поправку, которая в Hat Island равна -6 ч.

Смотрите также архив погоды в соседних городах и на ближайших метеорологических станциях:

Погода в Gjoa Haven Climate (Канада) (173 км)
Погода в Ellice River AWS (Канада) (198 км)
Погода в Cambridge Bay Gsn (Канада) (223 км)
Погода в Cambridge Bay Arpt (Канада) (223 км)
Погода в Shepherd Bay (Канада) (273 км)
Погода в Spence bay (Канада) (291 км)
Погода в Back River MAPS (Канада) (291 км)
Погода в Cape Peel West (Канада) (325 км)
Погода в Robertson Lake (Канада) (373 км)
Погода в Kugaaruk climate (Канада) (417 км)

Пояснения к столбцам:

Ветер - указаны скорость ветра в м/с - средняя за 10 мин, порывы в срок и между сроками (в фигурных скобках) и направление, откуда дует ветер: С - северный, СВ - северо-восточный, В - восточный, ЮВ - юго-восточный, Ю - южный, ЮЗ - юго-западный, З - западный, СЗ - северо-западный.
Видимость - горизонтальная дальность видимости в метрах или километрах. При видимости от 1 до 10 км при отсутствии осадков обычно наблюдается дымка, при ухудшении видимости до 1 км и менее - туман. В сухую погоду видимость может ухудшаться дымом, пылью или мглою.
Явления - указаны атмосферные явления, наблюдавшиеся в срок или в последний час перед сроком; фигурными скобками обозначены явления, наблюдавшиеся между сроками (за 1-3 часа до срока); квадратными скобками обозначены град или гололедные отложения с указанием их диаметра в мм.
Облачность - указаны через наклонную черту общая и нижняя облачность в баллах и высота нижней границы облаков в метрах; квадратными скобками обозначены формы облаков: Ci - перистые, Cs - перисто-слоистые, Cc - перисто-кучевые, Ac - высококучевые, As - высокослоистые, Sc - слоисто-кучевые, Ns - слоисто-дождевые, Cu - кучевые, Cb - кучево-дождевые. Подробнее классификацию облаков см. в Атласе облаков (PDF).
T - Температура воздуха - температура, измеренная на высоте 2 м над землей.
Td - Температура точки росы - температура, при понижении до которой содержащийся в воздухе водяной пар достигнет насыщения.
f - Относительная влажность воздуха - влажноcть воздуха, измеренная на высоте 2 м над землей.
Te - Эффективная температура - температура, которую ощущает одетый по сезону человек в тени. Характеристика душности погоды. При расчете учитывается влияние влажности воздуха и скорости ветра на теплоощущения человека.
Tes - Эффективная температура на солнце - температура, которую ощущает человек, с поправкой на солнечный нагрев. Характеристика знойности погоды. Зависит от высоты солнца над горизонтом, облачности и скорости ветра. Ночью, в пасмурную погоду, а также при ветре 12 м/с и более поправка равна нулю.
P - Атмосферное давление - приведенное к уровню моря атмосферное давление.
Po - Атмосферное давление - измеренное на уровне метеостанции атмосферное давление.
Tmin - Минимальная температура - минимум температуры воздуха на высоте 2 м над землей.
Tmax - Максимальная температура - максимум температуры воздуха на высоте 2 м над землей.
R - Количество осадков - Количество выпавших осадков за период времени, мм. При наведении курсора мыши на число - период времени, за который выпало указанное количество осадков.
R24 - Количество осадков - Количество выпавших осадков за 24 часа, мм.
S - Снежный покров - Высота снежного покрова, см. При наведении курсора мыши на число - состояние снежного покрова и степень покрытия местности в баллах.